VA3ZFM-10 Weather Reports


time (UTC)temp
C
wind
direction
speed
KPH
gust
KPH
rain 1hr
cm
rain 24hr
cm
rain mn
cm
humidity
%
barometer
mb
20260507081443 0 225 3.2 3.2 0.00 0.00 0.00 75 1009.2
20260507080940 0 209 3.2 4.8 0.00 0.00 0.00 75 1009.2
20260507080436 0 234 0.0 3.2 0.00 0.00 0.00 75 1009.2
20260507075932 0 228 0.0 0.0 0.00 0.00 0.00 74 1009.3
20260507075428 0 204 0.0 0.0 0.00 0.00 0.00 73 1008.9
20260507074925 1 187 3.2 4.8 0.00 0.00 0.00 71 1009.0
20260507074422 1 187 0.0 1.6 0.00 0.00 0.00 71 1009.2
20260507073920 1 237 1.6 4.8 0.00 0.00 0.00 71 1009.0
20260507073416 1 164 0.0 0.0 0.00 0.00 0.00 70 1009.2
20260507072913 1 196 1.6 3.2 0.00 0.00 0.00 69 1009.0
20260507072410 1 234 0.0 0.0 0.00 0.00 0.00 69 1009.2
20260507071908 1 208 3.2 4.8 0.00 0.00 0.00 69 1009.1
20260507071405 1 158 1.6 4.8 0.00 0.00 0.00 68 1009.3
20260507070901 1 267 1.6 11.3 0.00 0.00 0.00 67 1009.2
20260507070359 1 257 0.0 3.2 0.00 0.00 0.00 68 1009.3
20260507065855 1 277 4.8 9.7 0.00 0.00 0.00 67 1009.2
20260507065352 1 262 0.0 1.6 0.00 0.00 0.00 68 1009.0
20260507064849 1 328 1.6 9.7 0.00 0.00 0.00 67 1009.2
20260507064347 1 257 0.0 3.2 0.00 0.00 0.00 67 1009.2
20260507063845 1 260 1.6 6.4 0.00 0.00 0.00 67 1009.4
20260507063341 1 346 1.6 9.7 0.00 0.00 0.00 66 1009.3
20260507062838 1 314 4.8 6.4 0.00 0.00 0.00 66 1009.2
20260507062335 2 3 0.0 4.8 0.00 0.00 0.00 66 1009.3
20260507061833 2 234 1.6 4.8 0.00 0.00 0.00 65 1009.3
20260507061331 2 310 0.0 9.7 0.00 0.00 0.00 66 1009.3
20260507060829 2 260 3.2 4.8 0.00 0.00 0.00 66 1009.3
20260507060325 2 334 3.2 6.4 0.00 0.00 0.00 66 1009.5
20260507055822 2 241 6.4 6.4 0.00 0.00 0.00 66 1009.3
20260507055317 2 241 0.0 6.4 0.00 0.00 0.00 67 1009.3
20260507054814 2 144 0.0 1.6 0.00 0.00 0.00 67 1009.2
20260507054310 2 304 0.0 1.6 0.00 0.00 0.00 67 1009.3
20260507053808 2 262 0.0 3.2 0.00 0.00 0.00 65 1009.3
20260507053306 2 235 0.0 1.6 0.00 0.00 0.00 65 1009.2
20260507052805 2 272 3.2 6.4 0.00 0.00 0.00 64 1009.5
20260507052300 2 220 3.2 4.8 0.00 0.00 0.00 64 1009.4
20260507051759 2 231 1.6 9.7 0.00 0.00 0.00 64 1009.3
20260507051255 2 186 0.0 6.4 0.00 0.00 0.00 64 1009.3
20260507050752 2 232 1.6 12.9 0.00 0.00 0.00 63 1009.1
20260507050249 2 240 3.2 9.7 0.00 0.00 0.00 63 1009.3
20260507045746 2 227 1.6 9.7 0.00 0.00 0.00 63 1009.1
20260507045241 2 254 1.6 6.4 0.00 0.00 0.00 63 1009.4
20260507044739 2 286 3.2 4.8 0.00 0.00 0.00 63 1009.3
20260507044235 2 52 3.2 3.2 0.00 0.00 0.00 63 1009.2
20260507043732 2 296 1.6 14.5 0.00 0.00 0.00 63 1009.4
20260507043229 2 201 4.8 6.4 0.00 0.00 0.00 63 1009.4
20260507042725 2 229 1.6 3.2 0.00 0.00 0.00 63 1009.3
20260507042220 2 350 0.0 0.0 0.00 0.00 0.00 63 1009.5
20260507041717 2 312 3.2 4.8 0.00 0.00 0.00 63 1009.6
20260507041214 2 223 1.6 4.8 0.00 0.00 0.00 62 1009.3
20260507040711 2 178 0.0 3.2 0.00 0.00 0.00 61 1009.5
20260507040207 2 278 6.4 9.7 0.00 0.00 0.00 61 1009.2
20260507035703 2 244 1.6 6.4 0.00 0.00 0.00 60 1009.2
20260507035159 2 230 0.0 3.2 0.00 0.00 0.00 61 1009.3
20260507034656 2 261 3.2 4.8 0.00 0.00 0.00 60 1009.3
20260507034153 2 197 0.0 4.8 0.00 0.00 0.00 60 1009.3
20260507033652 2 277 0.0 4.8 0.00 0.00 0.00 59 1009.1
20260507033149 2 203 0.0 3.2 0.00 0.00 0.00 60 1009.2
20260507032646 3 53 0.0 1.6 0.00 0.00 0.00 60 1009.3
20260507032142 3 236 3.2 9.7 0.00 0.00 0.00 60 1009.3
20260507031639 3 300 3.2 11.3 0.00 0.00 0.00 60 1009.3
20260507031135 3 115 3.2 6.4 0.00 0.00 0.00 59 1009.5
20260507030632 3 192 0.0 9.7 0.00 0.00 0.00 60 1009.4
20260507030130 3 237 3.2 3.2 0.00 0.00 0.00 59 1009.6
20260507025627 3 204 1.6 6.4 0.00 0.00 0.00 60 1009.4
20260507025124 3 258 3.2 4.8 0.00 0.00 0.00 61 1009.5
20260507024622 3 179 0.0 4.8 0.00 0.00 0.00 62 1009.3
20260507024119 3 247 0.0 1.6 0.00 0.00 0.00 63 1009.2
20260507023614 3 129 0.0 0.0 0.00 0.00 0.00 63 1009.3
20260507023112 3 193 0.0 3.2 0.00 0.00 0.00 63 1009.3
20260507022609 3 200 0.0 1.6 0.00 0.00 0.00 63 1009.2
20260507022104 4 207 0.0 1.6 0.00 0.00 0.00 62 1009.3
20260507021601 4 215 3.2 4.8 0.00 0.00 0.00 61 1009.2
20260507021056 4 320 0.0 1.6 0.00 0.00 0.00 63 1009.4
20260507020555 4 250 0.0 1.6 0.00 0.00 0.00 64 1009.2
20260507020051 4 194 0.0 6.4 0.00 0.00 0.00 64 1009.1
20260507015550 4 210 0.0 6.4 0.00 0.00 0.00 64 1009.2
20260507015047 5 226 3.2 3.2 0.00 0.00 0.00 64 1009.2
20260507014543 5 169 0.0 1.6 0.00 0.00 0.00 66 1009.0
20260507014039 5 179 3.2 4.8 0.00 0.00 0.00 64 1009.0
20260507013536 5 237 0.0 0.0 0.00 0.00 0.00 70 1009.1
20260507013033 5 156 0.0 0.0 0.00 0.00 0.00 75 1008.9
20260507012530 5 148 0.0 1.6 0.00 0.00 0.00 76 1008.9
20260507012026 5 199 0.0 1.6 0.00 0.00 0.00 77 1008.7
20260507011524 5 192 0.0 0.0 0.00 0.00 0.00 77 1008.7
20260507011020 5 203 0.0 0.0 0.00 0.00 0.00 77 1008.9
20260507010514 5 190 0.0 0.0 0.00 0.00 0.00 76 1008.7
20260507010011 5 195 0.0 0.0 0.00 0.00 0.00 75 1008.8
20260507005509 5 186 0.0 0.0 0.00 0.00 0.00 76 1008.8
20260507005005 5 202 0.0 0.0 0.00 0.00 0.00 75 1008.6
20260507004502 5 191 0.0 3.2 0.00 0.00 0.00 75 1008.9
20260507003959 5 213 1.6 3.2 0.00 0.00 0.00 75 1008.7
20260507003454 5 192 0.0 1.6 0.00 0.00 0.00 75 1008.5
20260507002949 6 195 0.0 1.6 0.00 0.00 0.00 74 1008.7
20260507002447 6 195 0.0 1.6 0.00 0.00 0.00 74 1008.7
20260507001943 6 182 0.0 0.0 0.00 0.00 0.00 73 1008.7
20260507001439 6 194 1.6 1.6 0.00 0.00 0.00 73 1008.5
20260507000937 6 182 0.0 3.2 0.00 0.00 0.00 73 1008.6
20260507000435 6 168 0.0 1.6 0.00 0.00 0.00 73 1008.7
20260506235928 6 185 0.0 1.6 0.00 0.00 0.00 73 1008.6
20260506235426 6 208 0.0 0.0 0.00 0.00 0.00 72 1008.3
20260506234921 6 171 0.0 3.2 0.00 0.00 0.00 72 1008.4
20260506234420 6 168 0.0 0.0 0.00 0.00 0.00 71 1008.5
20260506233917 6 297 0.0 1.6 0.00 0.00 0.00 70 1008.4
20260506233413 6 234 1.6 3.2 0.00 0.00 0.00 70 1008.3
20260506232910 7 175 0.0 0.0 0.00 0.00 0.00 71 1008.3
20260506232406 7 134 1.6 1.6 0.00 0.00 0.00 71 1008.4
20260506231902 7 191 0.0 3.2 0.00 0.00 0.00 71 1008.5
20260506231400 7 218 1.6 3.2 0.00 0.00 0.00 70 1008.2
20260506230857 7 217 3.2 4.8 0.00 0.00 0.00 68 1008.2
20260506230354 8 273 0.0 1.6 0.00 0.00 0.00 67 1008.0
20260506225849 7 123 0.0 0.0 0.00 0.00 0.00 69 1008.2
20260506225347 7 200 1.6 3.2 0.00 0.00 0.00 70 1008.3
20260506224839 7 274 0.0 4.8 0.00 0.00 0.00 69 1008.3
20260506224336 7 162 3.2 3.2 0.00 0.00 0.00 69 1008.3
20260506223832 7 222 3.2 4.8 0.00 0.00 0.00 69 1008.2
20260506223327 7 228 0.0 6.4 0.00 0.00 0.00 68 1008.1
20260506222825 8 240 6.4 9.7 0.00 0.00 0.00 68 1008.1
20260506222320 7 212 0.0 1.6 0.00 0.00 0.00 69 1008.0
20260506221818 7 316 6.4 9.7 0.00 0.00 0.00 69 1008.1
20260506221315 7 212 1.6 4.8 0.00 0.00 0.00 70 1008.2
20260506220814 7 223 0.0 3.2 0.00 0.00 0.00 71 1008.4
20260506220313 7 3 0.0 3.2 0.00 0.00 0.00 72 1008.1
20260506215810 7 284 3.2 4.8 0.00 0.00 0.00 73 1008.4
20260506215306 8 258 3.2 3.2 0.00 0.00 0.00 72 1008.2
20260506214802 7 104 1.6 1.6 0.00 0.00 0.00 72 1008.2
20260506214259 7 276 6.4 9.7 0.00 0.00 0.00 72 1008.4
20260506213758 7 214 6.4 11.3 0.00 0.00 0.00 71 1008.5
20260506213254 8 237 1.6 3.2 0.00 0.00 0.00 69 1008.3
20260506212752 8 194 3.2 9.7 0.00 0.00 0.00 69 1008.2
20260506212247 8 311 3.2 11.3 0.00 0.00 0.00 67 1007.9
20260506211742 8 274 1.6 6.4 0.00 0.00 0.00 66 1008.0
20260506211239 8 258 3.2 9.7 0.00 0.00 0.00 65 1008.0
20260506210736 8 233 0.0 9.7 0.00 0.00 0.00 65 1007.9
20260506210233 8 257 1.6 4.8 0.00 0.00 0.00 64 1007.9
20260506205730 8 345 0.0 4.8 0.00 0.00 0.00 64 1008.0
20260506205226 9 234 3.2 6.4 0.00 0.00 0.00 63 1008.0
20260506204723 9 197 3.2 9.7 0.00 0.00 0.00 62 1007.9
20260506204220 10 172 1.6 6.4 0.00 0.00 0.00 62 1007.8
20260506203718 9 178 1.6 9.7 0.00 0.00 0.00 62 1007.7
20260506203215 9 289 3.2 6.4 0.00 0.00 0.00 62 1007.7
20260506202713 10 51 0.0 6.4 0.00 0.00 0.00 61 1007.8
20260506202209 10 145 0.0 4.8 0.00 0.00 0.00 60 1007.6
20260506201706 10 220 1.6 4.8 0.00 0.00 0.00 60 1007.6
20260506201203 10 223 3.2 11.3 0.00 0.00 0.00 59 1007.7
20260506200659 10 134 1.6 9.7 0.00 0.00 0.00 60 1007.9
20260506200156 10 196 1.6 4.8 0.00 0.00 0.00 59 1007.6
20260506195653 10 207 3.2 6.4 0.00 0.00 0.00 59 1007.7
20260506195149 10 265 4.8 6.4 0.00 0.00 0.00 57 1007.8
20260506194647 10 193 1.6 6.4 0.00 0.00 0.00 57 1007.9
20260506194142 10 229 0.0 3.2 0.00 0.00 0.00 58 1007.7
20260506193641 10 218 3.2 4.8 0.00 0.00 0.00 58 1007.7
20260506193137 10 310 6.4 16.1 0.00 0.00 0.00 60 1007.7
20260506192634 10 234 3.2 6.4 0.00 0.00 0.00 59 1007.9
20260506192130 9 199 1.6 3.2 0.00 0.00 0.00 60 1007.8
20260506191627 10 249 1.6 3.2 0.00 0.00 0.00 58 1008.0
20260506191123 9 206 1.6 3.2 0.00 0.00 0.00 59 1008.0
20260506190621 10 217 1.6 9.7 0.00 0.00 0.00 58 1007.8
20260506190118 10 243 1.6 6.4 0.00 0.00 0.00 58 1008.0
20260506185615 9 244 1.6 6.4 0.00 0.00 0.00 58 1007.9
20260506185110 10 164 1.6 9.7 0.00 0.00 0.00 57 1007.7
20260506184609 10 240 0.0 6.4 0.00 0.00 0.00 56 1007.7
20260506184106 10 198 4.8 12.9 0.00 0.00 0.00 56 1007.7
20260506183602 10 290 1.6 9.7 0.00 0.00 0.00 56 1007.9
20260506183058 10 231 3.2 6.4 0.00 0.00 0.00 56 1007.7
20260506182555 10 255 4.8 9.7 0.00 0.00 0.00 56 1007.7
20260506182052 9 292 1.6 6.4 0.00 0.00 0.00 58 1007.6
20260506181551 9 177 4.8 4.8 0.00 0.00 0.00 58 1007.7
20260506181047 9 239 1.6 9.7 0.00 0.00 0.00 60 1007.8
20260506180543 9 231 3.2 3.2 0.00 0.00 0.00 58 1008.0
20260506180040 9 135 4.8 4.8 0.00 0.00 0.00 59 1008.0
20260506175537 9 200 0.0 3.2 0.00 0.00 0.00 59 1007.8
20260506175033 10 215 1.6 3.2 0.00 0.00 0.00 58 1007.8
20260506174532 10 327 1.6 3.2 0.00 0.00 0.00 58 1007.9
20260506174027 10 172 4.8 6.4 0.00 0.00 0.00 58 1007.8
20260506173525 9 199 0.0 3.2 0.00 0.00 0.00 59 1007.9
20260506173022 9 247 1.6 3.2 0.00 0.00 0.00 60 1007.9
20260506172519 8 205 0.0 3.2 0.00 0.00 0.00 62 1008.1
20260506172016 8 204 3.2 3.2 0.00 0.00 0.00 62 1008.3
20260506171513 8 182 0.0 3.2 0.00 0.00 0.00 63 1008.0
20260506171011 8 163 0.0 4.8 0.00 0.00 0.00 63 1008.2
20260506170508 8 206 3.2 4.8 0.00 0.00 0.00 62 1008.1
20260506170006 8 201 1.6 6.4 0.00 0.00 0.00 62 1008.2
20260506165504 8 208 0.0 6.4 0.00 0.00 0.00 61 1008.0
20260506164959 8 155 1.6 4.8 0.00 0.00 0.00 61 1008.3
20260506164456 8 243 1.6 3.2 0.00 0.00 0.00 61 1008.2
20260506163954 8 202 1.6 3.2 0.00 0.00 0.00 61 1008.0
20260506163449 8 164 0.0 4.8 0.00 0.00 0.00 60 1008.0
20260506162944 8 217 0.0 1.6 0.00 0.00 0.00 59 1008.0
20260506162442 8 214 0.0 1.6 0.00 0.00 0.00 58 1008.1
20260506161939 8 131 0.0 3.2 0.00 0.00 0.00 58 1007.9
20260506161437 8 210 1.6 4.8 0.00 0.00 0.00 57 1007.9
20260506160934 8 160 1.6 3.2 0.00 0.00 0.00 56 1008.2
20260506160431 8 212 3.2 4.8 0.00 0.00 0.00 55 1008.0
20260506155929 8 232 3.2 3.2 0.00 0.00 0.00 55 1008.0
20260506155427 9 197 0.0 6.4 0.00 0.00 0.00 54 1007.6
20260506153548 8 202 0.0 1.6 0.00 0.00 0.00 56 1007.6
20260506153045 9 158 1.6 3.2 0.00 0.00 0.00 56 1007.7
20260506152542 9 186 0.0 1.6 0.00 0.00 0.00 56 1007.7
20260506152040 9 195 1.6 6.4 0.00 0.00 0.00 57 1007.9
20260506151538 9 175 1.6 3.2 0.00 0.00 0.00 55 1008.0
20260506151035 8 87 0.0 1.6 0.00 0.00 0.00 56 1007.8
20260506150531 8 172 0.0 3.2 0.00 0.00 0.00 56 1007.7
20260506150028 8 214 3.2 3.2 0.00 0.00 0.00 58 1007.9
20260506145525 8 246 0.0 1.6 0.00 0.00 0.00 57 1008.1
20260506145023 8 218 0.0 4.8 0.00 0.00 0.00 57 1007.9
20260506144519 8 160 0.0 3.2 0.00 0.00 0.00 59 1008.0
20260506144017 8 256 0.0 9.7 0.00 0.00 0.00 58 1007.9
20260506143514 8 183 1.6 3.2 0.00 0.00 0.00 61 1007.9
20260506143013 8 242 3.2 6.4 0.00 0.00 0.00 62 1008.1
20260506142510 8 190 1.6 4.8 0.00 0.00 0.00 63 1008.3
20260506142008 8 176 1.6 4.8 0.00 0.00 0.00 63 1008.2
20260506141505 8 157 1.6 3.2 0.00 0.00 0.00 65 1008.6
20260506141003 8 205 1.6 1.6 0.00 0.00 0.00 65 1008.1
20260506140500 7 159 0.0 3.2 0.00 0.00 0.00 66 1008.2
20260506135957 7 198 1.6 3.2 0.00 0.00 0.00 67 1008.5
20260506135454 7 170 0.0 3.2 0.00 0.00 0.00 69 1008.5
20260506134950 7 187 0.0 0.0 0.00 0.00 0.00 69 1008.6
20260506134446 8 162 0.0 3.2 0.00 0.00 0.00 68 1008.3
20260506133943 7 179 1.6 4.8 0.00 0.00 0.00 70 1008.3
20260506133440 7 200 0.0 3.2 0.00 0.00 0.00 71 1008.4
20260506132937 6 213 0.0 1.6 0.00 0.00 0.00 71 1008.2
20260506132434 6 168 0.0 0.0 0.00 0.00 0.00 71 1008.1
20260506131932 6 249 1.6 3.2 0.00 0.00 0.00 71 1008.0
20260506131428 7 207 0.0 1.6 0.00 0.00 0.00 71 1007.9
20260506130925 7 330 0.0 1.6 0.00 0.00 0.00 72 1008.1
20260506130421 6 262 1.6 3.2 0.00 0.00 0.00 71 1008.2
20260506125920 6 173 0.0 1.6 0.00 0.00 0.00 73 1008.2
20260506125418 6 310 0.0 1.6 0.00 0.00 0.00 74 1008.2
20260506124916 6 171 0.0 0.0 0.00 0.00 0.00 74 1008.3
20260506124413 6 210 0.0 3.2 0.00 0.00 0.00 75 1008.5
20260506123910 6 197 0.0 1.6 0.00 0.00 0.00 75 1008.1
20260506123408 6 187 0.0 1.6 0.00 0.00 0.00 75 1008.0
20260506122906 6 99 0.0 0.0 0.00 0.00 0.00 75 1008.3
20260506122402 6 131 0.0 3.2 0.00 0.00 0.00 75 1008.3
20260506121900 5 241 0.0 1.6 0.00 0.00 0.00 76 1008.4
20260506121357 5 194 0.0 1.6 0.00 0.00 0.00 76 1008.2
20260506120854 5 199 0.0 0.0 0.00 0.00 0.00 76 1008.4
20260506120352 5 160 0.0 0.0 0.00 0.00 0.00 77 1008.4
20260506115849 5 40 0.0 0.0 0.00 0.00 0.00 78 1008.4
20260506115347 5 242 1.6 3.2 0.00 0.00 0.00 78 1008.4
20260506114845 4 9 0.0 0.0 0.00 0.00 0.00 79 1008.3
20260506114342 4 111 0.0 0.0 0.00 0.00 0.00 79 1008.1
20260506113841 4 119 0.0 0.0 0.00 0.00 0.00 79 1008.2
20260506113338 4 124 0.0 0.0 0.00 0.00 0.00 79 1007.9
20260506112834 4 164 0.0 0.0 0.00 0.00 0.00 78 1008.2
20260506112332 4 165 0.0 0.0 0.00 0.00 0.00 78 1007.9
20260506111829 4 165 0.0 0.0 0.00 0.00 0.00 78 1007.9
20260506111327 4 165 0.0 0.0 0.00 0.00 0.00 76 1008.0
20260506110824 4 165 0.0 0.0 0.00 0.00 0.00 76 1008.1
20260506110321 4 165 0.0 0.0 0.00 0.00 0.00 78 1007.9
20260506105818 4 165 0.0 0.0 0.00 0.00 0.00 78 1007.9
20260506105314 4 166 0.0 0.0 0.00 0.00 0.00 77 1007.6
20260506104812 4 166 0.0 0.0 0.00 0.00 0.00 77 1008.0
20260506104310 4 166 0.0 0.0 0.00 0.00 0.00 77 1008.0
20260506103807 4 166 0.0 0.0 0.00 0.00 0.00 76 1008.1
20260506103305 4 166 0.0 0.0 0.00 0.00 0.00 75 1008.0
20260506102802 4 166 0.0 0.0 0.00 0.00 0.00 72 1007.9
20260506102300 4 170 0.0 1.6 0.00 0.00 0.00 72 1007.6
20260506101757 4 169 0.0 0.0 0.00 0.00 0.00 71 1008.0
20260506101253 4 163 0.0 0.0 0.00 0.00 0.00 72 1007.8
20260506100751 4 168 0.0 0.0 0.00 0.00 0.00 73 1008.1
20260506100249 4 167 0.0 0.0 0.00 0.00 0.00 73 1008.0
20260506095747 4 169 0.0 0.0 0.00 0.00 0.00 74 1007.9
20260506095244 4 169 0.0 0.0 0.00 0.00 0.00 74 1007.9
20260506094740 4 169 0.0 0.0 0.00 0.00 0.00 74 1007.9
20260506094239 4 169 0.0 0.0 0.00 0.00 0.00 74 1007.9
20260506093737 4 169 0.0 0.0 0.00 0.00 0.00 75 1007.9
20260506093234 4 169 0.0 0.0 0.00 0.00 0.00 73 1008.2
20260506092731 4 169 0.0 0.0 0.00 0.00 0.00 74 1007.9
20260506092229 4 170 0.0 0.0 0.00 0.00 0.00 73 1008.0
20260506091726 4 170 0.0 0.0 0.00 0.00 0.00 73 1008.3
20260506091224 4 170 0.0 0.0 0.00 0.00 0.00 72 1008.1
20260506090721 4 192 0.0 0.0 0.00 0.00 0.00 73 1008.4
20260506090218 4 152 0.0 0.0 0.00 0.00 0.00 71 1008.7
20260506085715 4 128 0.0 0.0 0.00 0.00 0.00 69 1008.2
20260506085211 4 128 0.0 0.0 0.00 0.00 0.00 68 1008.2
20260506084708 4 128 0.0 0.0 0.00 0.00 0.00 69 1007.8
20260506084204 4 128 0.0 0.0 0.00 0.00 0.00 67 1007.9
20260506083701 4 126 0.0 0.0 0.00 0.00 0.00 68 1008.2
20260506083159 4 126 0.0 0.0 0.00 0.00 0.00 68 1007.8
20260506082656 4 126 0.0 0.0 0.00 0.00 0.00 70 1007.7
20260506082156 4 126 0.0 0.0 0.00 0.00 0.00 68 1007.8